TimeHST,TemperatureF,Dew PointF,Humidity,Sea Level PressureIn,VisibilityMPH,Wind Direction,Wind SpeedMPH,Gust SpeedMPH,PrecipitationIn,Events,Conditions,WindDirDegrees,DateUTC
12:53 AM,77.0,66.0,69,30.07,10.0,NE,12.7,17.3,N/A,,Scattered Clouds,40,2011-11-09 10:53:00
1:53 AM,77.0,66.0,69,30.06,10.0,NE,16.1,20.7,N/A,,Partly Cloudy,40,2011-11-09 11:53:00
2:53 AM,77.0,66.0,69,30.05,10.0,NNE,10.4,-,0.00,Rain,Light Rain,30,2011-11-09 12:53:00
3:53 AM,75.0,68.0,79,30.05,10.0,NE,10.4,-,0.00,,Mostly Cloudy,40,2011-11-09 13:53:00
4:53 AM,75.9,68.0,76,30.06,10.0,ENE,17.3,25.3,0.00,,Mostly Cloudy,60,2011-11-09 14:53:00
5:53 AM,75.9,66.9,74,30.06,10.0,ENE,11.5,-,N/A,,Scattered Clouds,70,2011-11-09 15:53:00
6:53 AM,75.0,66.9,76,30.08,10.0,ENE,17.3,23.0,0.00,,Mostly Cloudy,60,2011-11-09 16:53:00
7:53 AM,75.9,68.0,76,30.10,8.0,NE,12.7,-,0.00,Rain,Light Rain,50,2011-11-09 17:53:00
8:53 AM,79.0,69.1,72,30.11,7.0,NNE,13.8,19.6,0.00,Rain,Light Rain,30,2011-11-09 18:53:00
9:53 AM,81.0,64.9,58,30.12,10.0,NE,16.1,24.2,0.01,,Scattered Clouds,50,2011-11-09 19:53:00
10:53 AM,82.9,62.1,49,30.11,10.0,NE,18.4,32.2,N/A,,Scattered Clouds,40,2011-11-09 20:53:00
11:53 AM,82.9,62.1,49,30.09,10.0,NE,17.3,26.5,N/A,,Scattered Clouds,40,2011-11-09 21:53:00
12:53 PM,84.0,63.0,49,30.07,10.0,NE,20.7,31.1,N/A,,Scattered Clouds,40,2011-11-09 22:53:00
1:53 PM,84.0,63.0,49,30.04,10.0,NE,15.0,25.3,N/A,,Mostly Cloudy,40,2011-11-09 23:53:00
2:53 PM,84.0,63.0,49,30.03,10.0,NE,18.4,29.9,0.00,,Scattered Clouds,50,2011-11-10 00:53:00
3:53 PM,82.0,64.0,54,30.03,10.0,ENE,16.1,23.0,0.00,,Mostly Cloudy,60,2011-11-10 01:53:00
4:53 PM,80.1,64.9,60,30.03,10.0,ENE,18.4,24.2,0.00,,Scattered Clouds,70,2011-11-10 02:53:00
5:53 PM,77.0,64.9,66,30.05,10.0,ENE,12.7,-,0.00,Rain,Light Rain,60,2011-11-10 03:53:00
6:53 PM,78.1,64.0,62,30.07,10.0,ENE,18.4,23.0,0.00,,Partly Cloudy,60,2011-11-10 04:53:00
7:53 PM,77.0,64.9,66,30.08,10.0,NE,12.7,-,0.00,,Scattered Clouds,50,2011-11-10 05:53:00
8:53 PM,75.9,64.9,69,30.09,10.0,ENE,16.1,23.0,0.00,,Scattered Clouds,60,2011-11-10 06:53:00
9:53 PM,77.0,64.9,66,30.09,10.0,ENE,18.4,-,N/A,,Scattered Clouds,60,2011-11-10 07:53:00
10:53 PM,75.9,64.9,69,30.09,10.0,ENE,13.8,-,N/A,,Scattered Clouds,60,2011-11-10 08:53:00
11:53 PM,75.9,64.0,67,30.08,10.0,ENE,13.8,-,0.00,,Scattered Clouds,70,2011-11-10 09:53:00